Location: Consuma
(43.7833°N, 11.5833°E)
Time: 08:37:53
(UTC+00:00)

Cosmos 2221 - Pass Details

Date: 17 February 2020
Orbit: 593 x 615 km, 82.5° (Epoch: 31 March)

Event Time Altitude Azimuth Distance (km) Brightness Sun altitude
Rises 04:13:42 0° 182° (S) 2,818 5.9 -21.7°
Reaches altitude 10° 04:15:53 10° 180° (S) 1,923 5.0 -21.3°
Maximum altitude 04:20:07 72° 97° (E) 630 2.7 -20.6°
Drops below altitude 10° 04:24:25 10° 12° (NNE) 1,949 5.3 -19.8°
Sets 04:26:38 0° 11° (N) 2,860 6.1 -19.4°
